• In Kazakhstan
  • List of Countries
  • For 7 days
  • Water Temperature
  • Satellite Maps
  • Weather Map
  • News
  • Weather Widgets
  • user-avatar
    Login

    Hourly Weather Sydney

    Today, 24 September, Sunday

    Time Temperature Precipitation Wind Pressure Humidity
    00:00 +29°C° 0 mm 6 mps 749 mmHg 16%
    01:00 +30°C° 0 mm 6 mps 749 mmHg 15%
    02:00 +29°C° 0 mm 6 mps 749 mmHg 16%
    03:00 +28°C° 0 mm 6 mps 749 mmHg 17%
    04:00 +28°C° 0 mm 5 mps 749 mmHg 18%
    05:00 +27°C° 0 mm 5 mps 750 mmHg 23%
    06:00 +27°C° 0 mm 5 mps 750 mmHg 27%
    07:00 +26°C° 0 mm 5 mps 751 mmHg 31%
    08:00 +28°C° 0 mm 5 mps 751 mmHg 27%
    09:00 +32°C° 0 mm 5 mps 751 mmHg 23%
    10:00 +32°C° 0 mm 4 mps 752 mmHg 23%
    11:00 +30°C° 0.2 mm 5 mps 752 mmHg 22%
    12:00 +30°C° 0.2 mm 6 mps 752 mmHg 22%
    13:00 +30°C° 0.2 mm 7 mps 751 mmHg 22%
    14:00 +30°C° 0.1 mm 7 mps 751 mmHg 22%
    15:00 +30°C° 0.1 mm 7 mps 751 mmHg 22%
    16:00 +30°C° 0.1 mm 7 mps 751 mmHg 23%
    17:00 +28°C° 0 mm 7 mps 751 mmHg 25%
    18:00 +26°C° 0 mm 6 mps 751 mmHg 27%
    19:00 +25°C° 0 mm 5 mps 752 mmHg 30%
    20:00 +23°C° 0 mm 4 mps 752 mmHg 31%
    21:00 +22°C° 0 mm 4 mps 752 mmHg 33%
    22:00 +21°C° 0 mm 3 mps 753 mmHg 34%
    23:00 +20°C° 0 mm 3 mps 753 mmHg 34%

    Tomorrow, 25 September, Monday

    Time Temperature Precipitation Wind Pressure Humidity
    00:00 +20°C° 0 mm 3 mps 753 mmHg 34%
    01:00 +19°C° 0 mm 3 mps 753 mmHg 34%
    02:00 +18°C° 0 mm 3 mps 754 mmHg 33%
    03:00 +18°C° 0 mm 3 mps 754 mmHg 33%
    04:00 +17°C° 0 mm 3 mps 754 mmHg 32%
    05:00 +17°C° 0 mm 3 mps 755 mmHg 33%
    06:00 +18°C° 0 mm 3 mps 755 mmHg 33%
    07:00 +18°C° 0 mm 4 mps 756 mmHg 34%
    08:00 +20°C° 0 mm 4 mps 756 mmHg 28%
    09:00 +23°C° 0 mm 4 mps 755 mmHg 23%
    10:00 +26°C° 0 mm 4 mps 755 mmHg 17%
    11:00 +27°C° 0 mm 4 mps 755 mmHg 16%
    12:00 +28°C° 0 mm 5 mps 755 mmHg 14%
    13:00 +30°C° 0 mm 5 mps 755 mmHg 13%
    14:00 +28°C° 0 mm 5 mps 755 mmHg 15%
    15:00 +27°C° 0 mm 5 mps 755 mmHg 18%
    16:00 +25°C° 0 mm 5 mps 756 mmHg 20%
    17:00 +23°C° 0 mm 5 mps 756 mmHg 24%
    18:00 +21°C° 0 mm 4 mps 757 mmHg 28%
    19:00 +20°C° 0 mm 4 mps 758 mmHg 31%
    20:00 +18°C° 0 mm 4 mps 758 mmHg 35%
    21:00 +17°C° 0 mm 3 mps 759 mmHg 39%
    22:00 +16°C° 0 mm 3 mps 759 mmHg 43%
    23:00 +14°C° 0 mm 3 mps 759 mmHg 45%

    Day after tomorrow, 26 September, Tuesday

    Time Temperature Precipitation Wind Pressure Humidity
    00:00 +13°C° 0 mm 3 mps 759 mmHg 47%
    01:00 +12°C° 0 mm 3 mps 759 mmHg 49%
    02:00 +12°C° 0 mm 3 mps 760 mmHg 50%
    03:00 +12°C° 0 mm 3 mps 760 mmHg 51%
    04:00 +11°C° 0 mm 3 mps 760 mmHg 52%
    05:00 +12°C° 0 mm 3 mps 760 mmHg 50%
    06:00 +14°C° 0 mm 2 mps 761 mmHg 48%
    07:00 +15°C° 0 mm 2 mps 761 mmHg 47%
    08:00 +18°C° 0 mm 2 mps 761 mmHg 41%
    09:00 +22°C° 0 mm 1 mps 761 mmHg 34%
    10:00 +26°C° 0 mm 1 mps 761 mmHg 28%
    11:00 +26°C° 0 mm 2 mps 760 mmHg 26%
    12:00 +27°C° 0 mm 2 mps 760 mmHg 24%
    13:00 +28°C° 0 mm 3 mps 759 mmHg 22%
    14:00 +27°C° 0 mm 4 mps 759 mmHg 26%
    15:00 +26°C° 0 mm 4 mps 759 mmHg 30%
    16:00 +25°C° 0 mm 5 mps 759 mmHg 34%
    17:00 +21°C° 0 mm 4 mps 759 mmHg 45%
    18:00 +19°C° 0 mm 4 mps 760 mmHg 55%
    19:00 +16°C° 0 mm 3 mps 760 mmHg 66%
    20:00 +16°C° 0 mm 3 mps 761 mmHg 71%
    21:00 +14°C° 0 mm 3 mps 761 mmHg 77%
    22:00 +14°C° 0 mm 3 mps 761 mmHg 82%
    23:00 +13°C° 0 mm 3 mps 761 mmHg 84%

    27 September, Wednesday

    Time Temperature Precipitation Wind Pressure Humidity
    00:00 +13°C° 0 mm 3 mps 760 mmHg 85%
    01:00 +13°C° 0 mm 3 mps 760 mmHg 87%
    02:00 +13°C° 0 mm 3 mps 760 mmHg 88%
    03:00 +12°C° 0 mm 3 mps 759 mmHg 89%
    04:00 +12°C° 0 mm 3 mps 759 mmHg 89%
    05:00 +13°C° 0 mm 3 mps 759 mmHg 86%
    06:00 +14°C° 0 mm 3 mps 759 mmHg 82%
    07:00 +17°C° 0 mm 4 mps 759 mmHg 78%
    08:00 +19°C° 0 mm 5 mps 758 mmHg 71%
    09:00 +22°C° 0 mm 6 mps 757 mmHg 63%
    10:00 +24°C° 0 mm 7 mps 756 mmHg 56%
    11:00 +28°C° 0 mm 7 mps 755 mmHg 47%
    12:00 +30°C° 0 mm 7 mps 754 mmHg 38%
    13:00 +34°C° 0 mm 6 mps 753 mmHg 30%
    14:00 +33°C° 0 mm 7 mps 752 mmHg 35%
    15:00 +32°C° 0 mm 7 mps 751 mmHg 40%
    16:00 +31°C° 0 mm 8 mps 750 mmHg 45%
    17:00 +28°C° 0 mm 6 mps 751 mmHg 56%
    18:00 +26°C° 0 mm 5 mps 752 mmHg 66%
    19:00 +23°C° 0 mm 4 mps 752 mmHg 76%
    20:00 +22°C° 0.3 mm 4 mps 753 mmHg 75%
    21:00 +21°C° 0.3 mm 5 mps 754 mmHg 74%
    22:00 +19°C° 0.3 mm 5 mps 755 mmHg 74%
    23:00 +19°C° 0.1 mm 5 mps 754 mmHg 71%

    28 September, Thursday

    Time Temperature Precipitation Wind Pressure Humidity
    00:00 +19°C° 0.1 mm 4 mps 754 mmHg 69%
    01:00 +18°C° 0.1 mm 4 mps 754 mmHg 67%
    02:00 +18°C° 0.2 mm 4 mps 754 mmHg 68%
    03:00 +16°C° 0.2 mm 5 mps 754 mmHg 70%
    04:00 +15°C° 0.2 mm 5 mps 755 mmHg 71%
    05:00 +15°C° 0.1 mm 5 mps 755 mmHg 72%
    06:00 +16°C° 0.1 mm 5 mps 756 mmHg 72%
    07:00 +16°C° 0.1 mm 6 mps 757 mmHg 73%
    08:00 +19°C° 0 mm 6 mps 757 mmHg 62%
    09:00 +21°C° 0 mm 6 mps 757 mmHg 50%
    10:00 +23°C° 0 mm 6 mps 758 mmHg 39%
    11:00 +26°C° 0 mm 5 mps 757 mmHg 33%
    12:00 +27°C° 0 mm 5 mps 757 mmHg 28%
    13:00 +29°C° 0 mm 4 mps 757 mmHg 22%
    14:00 +28°C° 0 mm 4 mps 757 mmHg 22%
    15:00 +28°C° 0 mm 4 mps 757 mmHg 22%
    16:00 +28°C° 0 mm 3 mps 756 mmHg 22%
    17:00 +26°C° 0 mm 3 mps 757 mmHg 31%
    18:00 +22°C° 0 mm 3 mps 758 mmHg 39%
    19:00 +19°C° 0 mm 3 mps 759 mmHg 47%
    20:00 +18°C° 0 mm 2 mps 759 mmHg 54%
    21:00 +18°C° 0 mm 2 mps 759 mmHg 60%
    22:00 +17°C° 0 mm 2 mps 759 mmHg 67%
    23:00 +16°C° 0 mm 2 mps 759 mmHg 67%

    29 September, Friday

    Time Temperature Precipitation Wind Pressure Humidity
    00:00 +16°C° 0 mm 2 mps 759 mmHg 68%
    01:00 +16°C° 0 mm 2 mps 759 mmHg 69%
    02:00 +15°C° 0 mm 2 mps 759 mmHg 70%
    03:00 +14°C° 0 mm 2 mps 759 mmHg 71%
    04:00 +14°C° 0 mm 2 mps 759 mmHg 72%
    05:00 +15°C° 0 mm 2 mps 760 mmHg 67%
    06:00 +15°C° 0 mm 2 mps 760 mmHg 62%
    07:00 +16°C° 0 mm 2 mps 761 mmHg 57%
    08:00 +21°C° 0 mm 1 mps 760 mmHg 48%
    09:00 +24°C° 0 mm 1 mps 760 mmHg 39%
    10:00 +27°C° 0 mm 1 mps 760 mmHg 31%
    11:00 +28°C° 0 mm 2 mps 759 mmHg 28%
    12:00 +29°C° 0 mm 3 mps 758 mmHg 25%
    13:00 +29°C° 0 mm 3 mps 757 mmHg 22%
    14:00 +28°C° 0 mm 3 mps 757 mmHg 28%
    15:00 +27°C° 0 mm 3 mps 757 mmHg 34%
    16:00 +25°C° 0 mm 3 mps 756 mmHg 40%
    17:00 +24°C° 0 mm 3 mps 757 mmHg 46%
    18:00 +21°C° 0 mm 2 mps 758 mmHg 51%
    19:00 +20°C° 0 mm 2 mps 758 mmHg 57%
    20:00 +19°C° 0.1 mm 2 mps 758 mmHg 57%
    21:00 +18°C° 0.1 mm 3 mps 759 mmHg 57%
    22:00 +17°C° 0.1 mm 3 mps 759 mmHg 58%
    23:00 +15°C° 0 mm 4 mps 759 mmHg 58%
    Show more